Year,Month,Day,Hour,Minute,Value (Times are PST for temperature in C)
2019,03,18,00,00,5.90
2019,03,18,00,01,5.90
2019,03,18,00,02,5.90
2019,03,18,00,03,5.90
2019,03,18,00,04,5.80
2019,03,18,00,05,5.80
2019,03,18,00,06,5.80
2019,03,18,00,07,5.80
2019,03,18,00,08,5.80
2019,03,18,00,09,5.80
2019,03,18,00,10,5.80
2019,03,18,00,11,5.70
2019,03,18,00,12,5.70
2019,03,18,00,13,5.70
2019,03,18,00,14,5.60
2019,03,18,00,15,5.60
2019,03,18,00,16,5.60
2019,03,18,00,17,5.60
2019,03,18,00,18,5.60
2019,03,18,00,19,5.60
2019,03,18,00,20,5.60
2019,03,18,00,21,5.60
2019,03,18,00,22,5.60
2019,03,18,00,23,5.60
2019,03,18,00,24,5.60
2019,03,18,00,25,5.50
2019,03,18,00,26,5.50
2019,03,18,00,27,5.50
2019,03,18,00,28,5.40
2019,03,18,00,29,5.40
2019,03,18,00,30,5.40
2019,03,18,00,31,5.40
2019,03,18,00,32,5.30
2019,03,18,00,33,5.30
2019,03,18,00,34,5.30
2019,03,18,00,35,5.30
2019,03,18,00,36,5.30
2019,03,18,00,37,5.30
2019,03,18,00,38,5.20
2019,03,18,00,39,5.20
2019,03,18,00,40,5.30
2019,03,18,00,41,5.30
2019,03,18,00,42,5.30
2019,03,18,00,43,5.30
2019,03,18,00,44,5.30
2019,03,18,00,45,5.30
2019,03,18,00,46,5.30
2019,03,18,00,47,5.30
2019,03,18,00,48,5.30
2019,03,18,00,49,5.30
2019,03,18,00,50,5.30
2019,03,18,00,51,5.30
2019,03,18,00,52,5.30
2019,03,18,00,53,5.20
2019,03,18,00,54,5.20
2019,03,18,00,55,5.20
2019,03,18,00,56,5.20
2019,03,18,00,57,5.20
2019,03,18,00,58,5.20
2019,03,18,00,59,5.20
2019,03,18,01,00,5.20
2019,03,18,01,01,5.20
2019,03,18,01,02,5.20
2019,03,18,01,03,5.10
2019,03,18,01,04,5.10
2019,03,18,01,05,5.10
2019,03,18,01,06,5.10
2019,03,18,01,07,5.10
2019,03,18,01,08,5.10
2019,03,18,01,09,5.10
2019,03,18,01,10,5.10
2019,03,18,01,11,5.10
2019,03,18,01,12,5.10
2019,03,18,01,13,5.10
2019,03,18,01,14,5.10
2019,03,18,01,15,5.00
2019,03,18,01,16,5.00
2019,03,18,01,17,4.90
2019,03,18,01,18,4.90
2019,03,18,01,19,4.90
2019,03,18,01,20,4.90
2019,03,18,01,21,4.90
2019,03,18,01,22,4.90
2019,03,18,01,23,4.80
2019,03,18,01,24,4.80
2019,03,18,01,25,4.80
2019,03,18,01,26,4.80
2019,03,18,01,27,4.80
2019,03,18,01,28,4.80
2019,03,18,01,29,4.80
2019,03,18,01,30,4.70
2019,03,18,01,31,4.70
2019,03,18,01,32,4.70
2019,03,18,01,33,4.60
2019,03,18,01,34,4.60
2019,03,18,01,35,4.70
2019,03,18,01,36,4.70
2019,03,18,01,37,4.70
2019,03,18,01,38,4.70
2019,03,18,01,39,4.70
2019,03,18,01,40,4.70
2019,03,18,01,41,4.70
2019,03,18,01,42,4.70
2019,03,18,01,43,4.70
2019,03,18,01,44,4.70
2019,03,18,01,45,4.70
2019,03,18,01,46,4.70
2019,03,18,01,47,4.70
2019,03,18,01,48,4.70
2019,03,18,01,49,4.70
2019,03,18,01,50,4.60
2019,03,18,01,51,4.60
2019,03,18,01,52,4.60
2019,03,18,01,53,4.60
2019,03,18,01,54,4.50
2019,03,18,01,55,4.50
2019,03,18,01,56,4.40
2019,03,18,01,57,4.40
2019,03,18,01,58,4.40
2019,03,18,01,59,4.40
2019,03,18,02,00,4.40
2019,03,18,02,01,4.40
2019,03,18,02,02,4.40
2019,03,18,02,03,4.50
2019,03,18,02,04,4.50
2019,03,18,02,05,4.60
2019,03,18,02,06,4.60
2019,03,18,02,07,4.60
2019,03,18,02,08,4.60
2019,03,18,02,09,4.60
2019,03,18,02,10,4.60
2019,03,18,02,11,4.60
2019,03,18,02,12,4.60
2019,03,18,02,13,4.60
2019,03,18,02,14,4.60
2019,03,18,02,15,4.70
2019,03,18,02,16,4.70
2019,03,18,02,17,4.70
2019,03,18,02,18,4.80
2019,03,18,02,19,4.80
2019,03,18,02,20,4.80
2019,03,18,02,21,4.80
2019,03,18,02,22,4.80
2019,03,18,02,23,4.80
2019,03,18,02,24,4.80
2019,03,18,02,25,4.80
2019,03,18,02,26,4.80
2019,03,18,02,27,4.80
2019,03,18,02,28,4.80
2019,03,18,02,29,4.80
2019,03,18,02,30,4.90
2019,03,18,02,31,4.90
2019,03,18,02,32,4.90
2019,03,18,02,33,4.90
2019,03,18,02,34,4.90
2019,03,18,02,35,5.00
2019,03,18,02,36,5.00
2019,03,18,02,37,5.00
2019,03,18,02,38,5.10
2019,03,18,02,39,5.10
2019,03,18,02,40,5.10
2019,03,18,02,41,5.10
2019,03,18,02,42,5.10
2019,03,18,02,43,5.10
2019,03,18,02,44,5.10
2019,03,18,02,45,5.10
2019,03,18,02,46,5.10
2019,03,18,02,47,5.10
2019,03,18,02,48,5.10
2019,03,18,02,49,5.10
2019,03,18,02,50,5.10
2019,03,18,02,51,5.10
2019,03,18,02,52,5.10
2019,03,18,02,53,5.10
2019,03,18,02,54,5.20
2019,03,18,02,55,5.20
2019,03,18,02,56,5.20
2019,03,18,02,57,5.20
2019,03,18,02,58,5.30
2019,03,18,02,59,5.30
2019,03,18,03,00,5.30
2019,03,18,03,01,5.30
2019,03,18,03,02,5.30
2019,03,18,03,03,5.40
2019,03,18,03,04,5.40
2019,03,18,03,05,5.50
2019,03,18,03,06,5.50
2019,03,18,03,07,5.60
2019,03,18,03,08,5.70
2019,03,18,03,09,5.70
2019,03,18,03,10,5.80
2019,03,18,03,11,5.80
2019,03,18,03,12,5.90
2019,03,18,03,13,5.90
2019,03,18,03,14,5.90
2019,03,18,03,15,5.90
2019,03,18,03,16,5.90
2019,03,18,03,17,5.90
2019,03,18,03,18,5.90
2019,03,18,03,19,6.00
2019,03,18,03,20,6.10
2019,03,18,03,21,6.20
2019,03,18,03,22,6.30
2019,03,18,03,23,6.40
2019,03,18,03,24,6.50
2019,03,18,03,25,6.50
2019,03,18,03,26,6.60
2019,03,18,03,27,6.70
2019,03,18,03,28,6.80
2019,03,18,03,29,6.90
2019,03,18,03,30,7.00
2019,03,18,03,31,7.10
2019,03,18,03,32,7.10
2019,03,18,03,33,7.20
2019,03,18,03,34,7.20
2019,03,18,03,35,7.30
2019,03,18,03,36,7.40
2019,03,18,03,37,7.50
2019,03,18,03,38,7.60
2019,03,18,03,39,7.70
2019,03,18,03,40,7.70
2019,03,18,03,41,7.70
2019,03,18,03,42,7.70
2019,03,18,03,43,7.80
2019,03,18,03,44,7.90
2019,03,18,03,45,7.90
2019,03,18,03,46,8.00
2019,03,18,03,47,8.10
2019,03,18,03,48,8.20
2019,03,18,03,49,8.30
2019,03,18,03,50,8.30
2019,03,18,03,51,8.40
2019,03,18,03,52,8.50
2019,03,18,03,53,8.50
2019,03,18,03,54,8.60
2019,03,18,03,55,8.70
2019,03,18,03,56,8.70
2019,03,18,03,57,8.80
2019,03,18,03,58,8.80
2019,03,18,03,59,8.80
2019,03,18,04,00,8.80
2019,03,18,04,01,8.80
2019,03,18,04,02,8.80
2019,03,18,04,03,8.80
2019,03,18,04,04,8.80
2019,03,18,04,05,8.80
2019,03,18,04,06,8.80
2019,03,18,04,07,8.80
2019,03,18,04,08,8.80
2019,03,18,04,09,8.80
2019,03,18,04,10,8.80
2019,03,18,04,11,8.80
2019,03,18,04,12,8.80
2019,03,18,04,13,8.80
2019,03,18,04,14,8.80
2019,03,18,04,15,8.80
2019,03,18,04,16,8.80
2019,03,18,04,17,8.80
2019,03,18,04,18,8.80
2019,03,18,04,19,8.70
2019,03,18,04,20,8.70
2019,03,18,04,21,8.70
2019,03,18,04,22,8.70
2019,03,18,04,23,8.70
2019,03,18,04,24,8.70
2019,03,18,04,25,8.70
2019,03,18,04,26,8.70
2019,03,18,04,27,8.70
2019,03,18,04,28,8.70
2019,03,18,04,29,8.70
2019,03,18,04,30,8.70
2019,03,18,04,31,8.70
2019,03,18,04,32,8.70
2019,03,18,04,33,8.70
2019,03,18,04,34,8.70
2019,03,18,04,35,8.70
2019,03,18,04,36,8.70
2019,03,18,04,37,8.60
2019,03,18,04,38,8.60
2019,03,18,04,39,8.60
2019,03,18,04,40,8.60
2019,03,18,04,41,8.60
2019,03,18,04,42,8.60
2019,03,18,04,43,8.50
2019,03,18,04,44,8.50
2019,03,18,04,45,8.50
2019,03,18,04,46,8.40
2019,03,18,04,47,8.40
2019,03,18,04,48,8.40
2019,03,18,04,49,8.30
2019,03,18,04,50,8.30
2019,03,18,04,51,8.30
2019,03,18,04,52,8.20
2019,03,18,04,53,8.20
2019,03,18,04,54,8.20
2019,03,18,04,55,8.20
2019,03,18,04,56,8.20
2019,03,18,04,57,8.10
2019,03,18,04,58,8.10
2019,03,18,04,59,8.10
2019,03,18,05,00,8.10
2019,03,18,05,01,8.10
2019,03,18,05,02,8.00
2019,03,18,05,03,8.00
2019,03,18,05,04,8.00
2019,03,18,05,05,8.00
2019,03,18,05,06,8.00
2019,03,18,05,07,7.90
2019,03,18,05,08,7.90
2019,03,18,05,09,7.90
2019,03,18,05,10,7.90
2019,03,18,05,11,7.90
2019,03,18,05,12,7.90
2019,03,18,05,13,7.90
2019,03,18,05,14,7.90
2019,03,18,05,15,8.00
2019,03,18,05,16,8.00
2019,03,18,05,17,8.00
2019,03,18,05,18,8.00
2019,03,18,05,19,8.00
2019,03,18,05,20,8.00
2019,03,18,05,21,8.10
2019,03,18,05,22,8.10
2019,03,18,05,23,8.10
2019,03,18,05,24,8.10
2019,03,18,05,25,8.10
2019,03,18,05,26,8.10
2019,03,18,05,27,8.10
2019,03,18,05,28,8.10
2019,03,18,05,29,8.10
2019,03,18,05,30,8.10
2019,03,18,05,31,8.10
2019,03,18,05,32,8.10
2019,03,18,05,33,8.10
2019,03,18,05,34,8.10
2019,03,18,05,35,8.10
2019,03,18,05,36,8.10
2019,03,18,05,37,8.10
2019,03,18,05,38,8.10
2019,03,18,05,39,8.10
2019,03,18,05,40,8.10
2019,03,18,05,41,8.10
2019,03,18,05,42,8.10
2019,03,18,05,43,8.10
2019,03,18,05,44,8.10
2019,03,18,05,45,8.10
2019,03,18,05,46,8.10
2019,03,18,05,47,8.10
2019,03,18,05,48,8.10
2019,03,18,05,49,8.10
2019,03,18,05,50,8.10
2019,03,18,05,51,8.10
2019,03,18,05,52,8.10
2019,03,18,05,53,8.10
2019,03,18,05,54,8.20
2019,03,18,05,55,8.20
2019,03,18,05,56,8.20
2019,03,18,05,57,8.30
2019,03,18,05,58,8.30
2019,03,18,05,59,8.30
2019,03,18,06,00,8.30
2019,03,18,06,01,8.30
2019,03,18,06,02,8.40
2019,03,18,06,03,8.40
2019,03,18,06,04,8.40
2019,03,18,06,05,8.40
2019,03,18,06,06,8.40
2019,03,18,06,07,8.50
2019,03,18,06,08,8.50
2019,03,18,06,09,8.50
2019,03,18,06,10,8.50
2019,03,18,06,11,8.50
2019,03,18,06,12,8.40
2019,03,18,06,13,8.40
2019,03,18,06,14,8.30
2019,03,18,06,15,8.30
2019,03,18,06,16,8.20
2019,03,18,06,17,8.10
2019,03,18,06,18,8.00
2019,03,18,06,19,7.90
2019,03,18,06,20,7.90
2019,03,18,06,21,7.80
2019,03,18,06,22,7.70
2019,03,18,06,23,7.60
2019,03,18,06,24,7.50
2019,03,18,06,25,7.40
2019,03,18,06,26,7.40
2019,03,18,06,27,7.30
2019,03,18,06,28,7.30
2019,03,18,06,29,7.20
2019,03,18,06,30,7.20
2019,03,18,06,31,7.20
2019,03,18,06,32,7.20
2019,03,18,06,33,7.20
2019,03,18,06,34,7.10
2019,03,18,06,35,7.10
2019,03,18,06,36,7.10
2019,03,18,06,37,7.10
2019,03,18,06,38,7.00
2019,03,18,06,39,7.00
2019,03,18,06,40,6.90
2019,03,18,06,41,6.90
2019,03,18,06,42,6.90
2019,03,18,06,43,6.80
2019,03,18,06,44,6.80
2019,03,18,06,45,6.80
2019,03,18,06,46,6.80
2019,03,18,06,47,6.70
2019,03,18,06,48,6.70
2019,03,18,06,49,6.70
2019,03,18,06,50,6.60
2019,03,18,06,51,6.60
2019,03,18,06,52,6.50
2019,03,18,06,53,6.50
2019,03,18,06,54,6.40
2019,03,18,06,55,6.40
2019,03,18,06,56,6.30
2019,03,18,06,57,6.30
2019,03,18,06,58,6.30
2019,03,18,06,59,6.30
2019,03,18,07,00,6.30
2019,03,18,07,01,6.30
2019,03,18,07,02,6.30
2019,03,18,07,03,6.30
2019,03,18,07,04,6.30
2019,03,18,07,05,6.20
2019,03,18,07,06,6.20
2019,03,18,07,07,6.20
2019,03,18,07,08,6.30
2019,03,18,07,09,6.30
2019,03,18,07,10,6.30
2019,03,18,07,11,6.30
2019,03,18,07,12,6.30
2019,03,18,07,13,6.30
2019,03,18,07,14,6.30
2019,03,18,07,15,6.30
2019,03,18,07,16,6.30
2019,03,18,07,17,6.30
2019,03,18,07,18,6.30
2019,03,18,07,19,6.30
2019,03,18,07,20,6.30
2019,03,18,07,21,6.30
2019,03,18,07,22,6.30
2019,03,18,07,23,6.30
2019,03,18,07,24,6.30
2019,03,18,07,25,6.30
2019,03,18,07,26,6.30
2019,03,18,07,27,6.30
2019,03,18,07,28,6.30
2019,03,18,07,29,6.30
2019,03,18,07,30,6.30
2019,03,18,07,31,6.30
2019,03,18,07,32,6.30
2019,03,18,07,33,6.30
2019,03,18,07,34,6.30
2019,03,18,07,35,6.30
2019,03,18,07,36,6.30
2019,03,18,07,37,6.30
2019,03,18,07,38,6.30
2019,03,18,07,39,6.30
2019,03,18,07,40,6.30
2019,03,18,07,41,6.40
2019,03,18,07,42,6.40
2019,03,18,07,43,6.40
2019,03,18,07,44,6.40
2019,03,18,07,45,6.50
2019,03,18,07,46,6.50
2019,03,18,07,47,6.50
2019,03,18,07,48,6.60
2019,03,18,07,49,6.60
2019,03,18,07,50,6.60
2019,03,18,07,51,6.60
2019,03,18,07,52,6.60
2019,03,18,07,53,6.60
2019,03,18,07,54,6.60
2019,03,18,07,55,6.60
2019,03,18,07,56,6.70
2019,03,18,07,57,6.70
2019,03,18,07,58,6.70
2019,03,18,07,59,6.80
2019,03,18,08,00,6.80
2019,03,18,08,01,6.80
2019,03,18,08,02,6.90
2019,03,18,08,03,7.00
2019,03,18,08,04,7.00
2019,03,18,08,05,7.10
2019,03,18,08,06,7.10
2019,03,18,08,07,7.20
2019,03,18,08,08,7.20
2019,03,18,08,09,7.20
2019,03,18,08,10,7.20
2019,03,18,08,11,7.30
2019,03,18,08,12,7.30
2019,03,18,08,13,7.30
2019,03,18,08,14,7.40
2019,03,18,08,15,7.40
2019,03,18,08,16,7.50
2019,03,18,08,17,7.50
2019,03,18,08,18,7.50
2019,03,18,08,19,7.60
2019,03,18,08,20,7.60
2019,03,18,08,21,7.70
2019,03,18,08,22,7.70
2019,03,18,08,23,7.70
2019,03,18,08,24,7.80
2019,03,18,08,25,7.80
2019,03,18,08,26,7.90
2019,03,18,08,27,8.00
2019,03,18,08,28,8.10
2019,03,18,08,29,8.20
2019,03,18,08,30,8.30
2019,03,18,08,31,8.40
2019,03,18,08,32,8.50
2019,03,18,08,33,8.50
2019,03,18,08,34,8.60
2019,03,18,08,35,8.70
2019,03,18,08,36,8.80
2019,03,18,08,37,8.90
2019,03,18,08,38,9.10
2019,03,18,08,39,9.20
2019,03,18,08,40,9.30
2019,03,18,08,41,9.40
2019,03,18,08,42,9.50
2019,03,18,08,43,9.60
2019,03,18,08,44,9.70
2019,03,18,08,45,9.80
2019,03,18,08,46,10.00
2019,03,18,08,47,10.10
2019,03,18,08,48,10.20
2019,03,18,08,49,10.30
2019,03,18,08,50,10.30
2019,03,18,08,51,10.40
2019,03,18,08,52,10.50
2019,03,18,08,53,10.60
2019,03,18,08,54,10.60
2019,03,18,08,55,10.60
2019,03,18,08,56,10.70
2019,03,18,08,57,10.80
2019,03,18,08,58,10.80
2019,03,18,08,59,10.90
2019,03,18,09,00,10.90
2019,03,18,09,01,10.90
2019,03,18,09,02,10.90
2019,03,18,09,03,11.00
2019,03,18,09,04,11.00
2019,03,18,09,05,11.00
2019,03,18,09,06,11.00
2019,03,18,09,07,11.10
2019,03,18,09,08,11.10
2019,03,18,09,09,11.10
2019,03,18,09,10,11.10
2019,03,18,09,11,11.10
2019,03,18,09,12,11.20
2019,03,18,09,13,11.20
2019,03,18,09,14,11.20
2019,03,18,09,15,11.20
2019,03,18,09,16,11.20
2019,03,18,09,17,11.20
2019,03,18,09,18,11.30
2019,03,18,09,19,11.30
2019,03,18,09,20,11.30
2019,03,18,09,21,11.40
2019,03,18,09,22,11.40
2019,03,18,09,23,11.50
2019,03,18,09,24,11.50
2019,03,18,09,25,11.60
2019,03,18,09,26,11.60
2019,03,18,09,27,11.70
2019,03,18,09,28,11.70
2019,03,18,09,29,11.70
2019,03,18,09,30,11.70
2019,03,18,09,31,11.70
2019,03,18,09,32,11.80
2019,03,18,09,33,11.80
2019,03,18,09,34,11.80
2019,03,18,09,35,11.80
2019,03,18,09,36,11.80
2019,03,18,09,37,11.80
2019,03,18,09,38,11.80
2019,03,18,09,39,11.80
2019,03,18,09,40,11.70
2019,03,18,09,41,11.70
2019,03,18,09,42,11.70
2019,03,18,09,43,11.70
2019,03,18,09,44,11.70
2019,03,18,09,45,11.70
2019,03,18,09,46,11.70
2019,03,18,09,47,11.80
2019,03,18,09,48,11.80
2019,03,18,09,49,11.80
2019,03,18,09,50,11.80
2019,03,18,09,51,11.80
2019,03,18,09,52,11.80
2019,03,18,09,53,11.80
2019,03,18,09,54,11.80
2019,03,18,09,55,11.80
2019,03,18,09,56,11.80
2019,03,18,09,57,11.90
2019,03,18,09,58,11.90
2019,03,18,09,59,12.00
2019,03,18,10,00,12.00
2019,03,18,10,01,12.00
2019,03,18,10,02,12.10
2019,03,18,10,03,12.10
2019,03,18,10,04,12.00
2019,03,18,10,05,12.00
2019,03,18,10,06,12.10
2019,03,18,10,07,12.10
2019,03,18,10,08,12.10
2019,03,18,10,09,12.10
2019,03,18,10,10,12.10
2019,03,18,10,11,12.10
2019,03,18,10,12,12.10
2019,03,18,10,13,12.10
2019,03,18,10,14,12.10
2019,03,18,10,15,12.10
2019,03,18,10,16,12.10
2019,03,18,10,17,12.20
2019,03,18,10,18,12.20
2019,03,18,10,19,12.20
2019,03,18,10,20,12.20
2019,03,18,10,21,12.20
2019,03,18,10,22,12.20
2019,03,18,10,23,12.20
2019,03,18,10,24,12.20
2019,03,18,10,25,12.20
2019,03,18,10,26,12.20
2019,03,18,10,27,12.20
2019,03,18,10,28,12.30
2019,03,18,10,29,12.40
2019,03,18,10,30,12.40
2019,03,18,10,31,12.40
2019,03,18,10,32,12.40
2019,03,18,10,33,12.40
2019,03,18,10,34,12.30
2019,03,18,10,35,12.30
2019,03,18,10,36,12.30
2019,03,18,10,37,12.40
2019,03,18,10,38,12.40
2019,03,18,10,39,12.40
2019,03,18,10,40,12.40
2019,03,18,10,41,12.40
2019,03,18,10,42,12.40
2019,03,18,10,43,12.40
2019,03,18,10,44,12.50
2019,03,18,10,45,12.50
2019,03,18,10,46,12.50
2019,03,18,10,47,12.60
2019,03,18,10,48,12.60
2019,03,18,10,49,12.60
2019,03,18,10,50,12.70
2019,03,18,10,51,12.70
2019,03,18,10,52,12.70
2019,03,18,10,53,12.80
2019,03,18,10,54,12.80
2019,03,18,10,55,12.90
2019,03,18,10,56,13.00
2019,03,18,10,57,13.00
2019,03,18,10,58,13.10
2019,03,18,10,59,13.10
2019,03,18,11,00,13.00
2019,03,18,11,01,13.00
2019,03,18,11,02,13.00
2019,03,18,11,03,13.10
2019,03,18,11,04,13.00
2019,03,18,11,05,13.00
2019,03,18,11,06,13.00
2019,03,18,11,07,13.00
2019,03,18,11,08,12.90
2019,03,18,11,09,12.90
2019,03,18,11,10,12.90
2019,03,18,11,11,12.90
2019,03,18,11,12,13.00
2019,03,18,11,13,13.00
2019,03,18,11,14,13.00
2019,03,18,11,15,13.10
2019,03,18,11,16,13.10
2019,03,18,11,17,13.20
2019,03,18,11,18,13.30
2019,03,18,11,19,13.30
2019,03,18,11,20,13.30
2019,03,18,11,21,13.40
2019,03,18,11,22,13.50
2019,03,18,11,23,13.50
2019,03,18,11,24,13.50
2019,03,18,11,25,13.50
2019,03,18,11,26,13.60
2019,03,18,11,27,13.60
2019,03,18,11,28,13.70
2019,03,18,11,29,13.70
2019,03,18,11,30,13.70
2019,03,18,11,31,13.70
2019,03,18,11,32,13.80
2019,03,18,11,33,13.80
2019,03,18,11,34,13.80
2019,03,18,11,35,13.80
2019,03,18,11,36,13.80
2019,03,18,11,37,13.90
2019,03,18,11,38,13.90
2019,03,18,11,39,13.90
2019,03,18,11,40,14.00
2019,03,18,11,41,14.00
2019,03,18,11,42,14.10
2019,03,18,11,43,14.10
2019,03,18,11,44,14.00
2019,03,18,11,45,14.00
2019,03,18,11,46,13.90
2019,03,18,11,47,13.90
2019,03,18,11,48,13.90
2019,03,18,11,49,13.90
2019,03,18,11,50,13.90
2019,03,18,11,51,13.90
2019,03,18,11,52,13.90
2019,03,18,11,53,14.00
2019,03,18,11,54,14.10
2019,03,18,11,55,14.20
2019,03,18,11,56,14.20
2019,03,18,11,57,14.20
2019,03,18,11,58,14.10
2019,03,18,11,59,14.10
2019,03,18,12,00,14.10
2019,03,18,12,01,14.10
2019,03,18,12,02,14.20
2019,03,18,12,03,14.20
2019,03,18,12,04,14.20
2019,03,18,12,05,14.20
2019,03,18,12,06,14.20
2019,03,18,12,07,14.20
2019,03,18,12,08,14.20
2019,03,18,12,09,14.20
2019,03,18,12,10,14.30
2019,03,18,12,11,14.30
2019,03,18,12,12,14.40
2019,03,18,12,13,14.30
2019,03,18,12,14,14.30
2019,03,18,12,15,14.40
2019,03,18,12,16,14.40
2019,03,18,12,17,14.30
2019,03,18,12,18,14.30
2019,03,18,12,19,14.30
2019,03,18,12,20,14.20
2019,03,18,12,21,14.20
2019,03,18,12,22,14.20
2019,03,18,12,23,14.20
2019,03,18,12,24,14.20
2019,03,18,12,25,14.20
2019,03,18,12,26,14.20
2019,03,18,12,27,14.30
2019,03,18,12,28,14.40
2019,03,18,12,29,14.50
2019,03,18,12,30,14.60
2019,03,18,12,31,14.70
2019,03,18,12,32,14.80
2019,03,18,12,33,14.90
2019,03,18,12,34,14.90
2019,03,18,12,35,14.90
2019,03,18,12,36,15.00
2019,03,18,12,37,14.90
2019,03,18,12,38,14.90
2019,03,18,12,39,14.90
2019,03,18,12,40,14.90
2019,03,18,12,41,14.90
2019,03,18,12,42,14.90
2019,03,18,12,43,14.90
2019,03,18,12,44,15.00
2019,03,18,12,45,15.00
2019,03,18,12,46,15.00
2019,03,18,12,47,15.00
2019,03,18,12,48,15.00
2019,03,18,12,49,15.00
2019,03,18,12,50,15.00
2019,03,18,12,51,15.00
2019,03,18,12,52,15.00
2019,03,18,12,53,15.00
2019,03,18,12,54,15.00
2019,03,18,12,55,15.10
2019,03,18,12,56,15.10
2019,03,18,12,57,15.10
2019,03,18,12,58,15.10
2019,03,18,12,59,15.10
2019,03,18,13,00,15.10
2019,03,18,13,01,15.10
2019,03,18,13,02,15.10
2019,03,18,13,03,15.20
2019,03,18,13,04,15.20
2019,03,18,13,05,15.30
2019,03,18,13,06,15.40
2019,03,18,13,07,15.50
2019,03,18,13,08,15.60
2019,03,18,13,09,15.70
2019,03,18,13,10,15.80
2019,03,18,13,11,15.80
2019,03,18,13,12,15.90
2019,03,18,13,13,15.90
2019,03,18,13,14,16.00
2019,03,18,13,15,16.10
2019,03,18,13,16,16.10
2019,03,18,13,17,16.10
2019,03,18,13,18,16.20
2019,03,18,13,19,16.20
2019,03,18,13,20,16.20
2019,03,18,13,21,16.20
2019,03,18,13,22,16.20
2019,03,18,13,23,16.20
2019,03,18,13,24,16.20
2019,03,18,13,25,16.20
2019,03,18,13,26,16.20
2019,03,18,13,27,16.20
2019,03,18,13,28,16.30
2019,03,18,13,29,16.30
2019,03,18,13,30,16.30
2019,03,18,13,31,16.30
2019,03,18,13,32,16.20
2019,03,18,13,33,16.20
2019,03,18,13,34,16.20
2019,03,18,13,35,16.30
2019,03,18,13,36,16.30
2019,03,18,13,37,16.30
2019,03,18,13,38,16.30
2019,03,18,13,39,16.30
2019,03,18,13,40,16.40
2019,03,18,13,41,16.30
2019,03,18,13,42,16.30
2019,03,18,13,43,16.40
2019,03,18,13,44,16.40
2019,03,18,13,45,16.50
2019,03,18,13,46,16.40
2019,03,18,13,47,16.50
2019,03,18,13,48,16.50
2019,03,18,13,49,16.50
2019,03,18,13,50,16.60
2019,03,18,13,51,16.60
2019,03,18,13,52,16.60
2019,03,18,13,53,16.60
2019,03,18,13,54,16.60
2019,03,18,13,55,16.60
2019,03,18,13,56,16.60
2019,03,18,13,57,16.70
2019,03,18,13,58,16.70
2019,03,18,13,59,16.70
2019,03,18,14,00,16.70
2019,03,18,14,01,16.80
2019,03,18,14,02,16.80
2019,03,18,14,03,16.80
2019,03,18,14,04,16.80
2019,03,18,14,05,16.80
2019,03,18,14,06,16.80
2019,03,18,14,07,16.80
2019,03,18,14,08,16.80
2019,03,18,14,09,16.80
2019,03,18,14,10,16.70
2019,03,18,14,11,16.70
2019,03,18,14,12,16.70
2019,03,18,14,13,16.70
2019,03,18,14,14,16.70
2019,03,18,14,15,16.70
2019,03,18,14,16,16.80
2019,03,18,14,17,16.90
2019,03,18,14,18,16.90
2019,03,18,14,19,17.00
2019,03,18,14,20,16.90
2019,03,18,14,21,16.90
2019,03,18,14,22,16.80
2019,03,18,14,23,16.80
2019,03,18,14,24,16.80
2019,03,18,14,25,16.80
2019,03,18,14,26,16.80
2019,03,18,14,27,16.80
2019,03,18,14,28,16.80
2019,03,18,14,29,16.90
2019,03,18,14,30,17.00
2019,03,18,14,31,17.00
2019,03,18,14,32,17.10
2019,03,18,14,33,17.10
2019,03,18,14,34,17.20
2019,03,18,14,35,17.30
2019,03,18,14,36,17.30
2019,03,18,14,37,17.30
2019,03,18,14,38,17.30
2019,03,18,14,39,17.40
2019,03,18,14,40,17.40
2019,03,18,14,41,17.30
2019,03,18,14,42,17.30
2019,03,18,14,43,17.30
2019,03,18,14,44,17.30
2019,03,18,14,45,17.40
2019,03,18,14,46,17.40
2019,03,18,14,47,17.40
2019,03,18,14,48,17.40
2019,03,18,14,49,17.40
2019,03,18,14,50,17.40
2019,03,18,14,51,17.40
2019,03,18,14,52,17.40
2019,03,18,14,53,17.40
2019,03,18,14,54,17.40
2019,03,18,14,55,17.50
2019,03,18,14,56,17.60
2019,03,18,14,57,17.60
2019,03,18,14,58,17.60
2019,03,18,14,59,17.50
2019,03,18,15,00,17.50
2019,03,18,15,01,17.60
2019,03,18,15,02,17.60
2019,03,18,15,03,17.60
2019,03,18,15,04,17.60
2019,03,18,15,05,17.60
2019,03,18,15,06,17.60
2019,03,18,15,07,17.70
2019,03,18,15,08,17.70
2019,03,18,15,09,17.80
2019,03,18,15,10,17.80
2019,03,18,15,11,17.90
2019,03,18,15,12,17.90
2019,03,18,15,13,18.00
2019,03,18,15,14,18.00
2019,03,18,15,15,18.00
2019,03,18,15,16,18.00
2019,03,18,15,17,18.10
2019,03,18,15,18,18.10
2019,03,18,15,19,18.20
2019,03,18,15,20,18.20
2019,03,18,15,21,18.10
2019,03,18,15,22,18.10
2019,03,18,15,23,18.10
2019,03,18,15,24,18.10
2019,03,18,15,25,18.10
2019,03,18,15,26,18.20
2019,03,18,15,27,18.20
2019,03,18,15,28,18.30
2019,03,18,15,29,18.30
2019,03,18,15,30,18.30
2019,03,18,15,31,18.20
2019,03,18,15,32,18.20
2019,03,18,15,33,18.20
2019,03,18,15,34,18.30
2019,03,18,15,35,18.30
2019,03,18,15,36,18.40
2019,03,18,15,37,18.40
2019,03,18,15,38,18.50
2019,03,18,15,39,18.60
2019,03,18,15,40,18.50
2019,03,18,15,41,18.40
2019,03,18,15,42,18.40
2019,03,18,15,43,18.40
2019,03,18,15,44,18.40
2019,03,18,15,45,18.30
2019,03,18,15,46,18.30
2019,03,18,15,47,18.30
2019,03,18,15,48,18.20
2019,03,18,15,49,18.20
2019,03,18,15,50,18.20
2019,03,18,15,51,18.20
2019,03,18,15,52,18.20
2019,03,18,15,53,18.20
2019,03,18,15,54,18.20
2019,03,18,15,55,18.20
2019,03,18,15,56,18.10
2019,03,18,15,57,18.10
2019,03,18,15,58,18.10
2019,03,18,15,59,18.10
2019,03,18,16,00,18.10
2019,03,18,16,01,18.10
2019,03,18,16,02,18.10
2019,03,18,16,03,18.10
2019,03,18,16,04,18.10
2019,03,18,16,05,18.10
2019,03,18,16,06,18.20
2019,03,18,16,07,18.20
2019,03,18,16,08,18.20
2019,03,18,16,09,18.20
2019,03,18,16,10,18.20
2019,03,18,16,11,18.20
2019,03,18,16,12,18.20
2019,03,18,16,13,18.20
2019,03,18,16,14,18.20
2019,03,18,16,15,18.20
2019,03,18,16,16,18.30
2019,03,18,16,17,18.30
2019,03,18,16,18,18.30
2019,03,18,16,19,18.30
2019,03,18,16,20,18.20
2019,03,18,16,21,18.20
2019,03,18,16,22,18.20
2019,03,18,16,23,18.20
2019,03,18,16,24,18.20
2019,03,18,16,25,18.20
2019,03,18,16,26,18.20
2019,03,18,16,27,18.20
2019,03,18,16,28,18.20
2019,03,18,16,29,18.10
2019,03,18,16,30,18.10
2019,03,18,16,31,18.20
2019,03,18,16,32,18.20
2019,03,18,16,33,18.30
2019,03,18,16,34,18.30
2019,03,18,16,35,18.30
2019,03,18,16,36,18.40
2019,03,18,16,37,18.40
2019,03,18,16,38,18.40
2019,03,18,16,39,18.50
2019,03,18,16,40,18.60
2019,03,18,16,41,18.60
2019,03,18,16,42,18.70
2019,03,18,16,43,18.70
2019,03,18,16,44,18.70
2019,03,18,16,45,18.70
2019,03,18,16,46,18.70
2019,03,18,16,47,18.70
2019,03,18,16,48,18.70
2019,03,18,16,49,18.70
2019,03,18,16,50,18.60
2019,03,18,16,51,18.50
2019,03,18,16,52,18.50
2019,03,18,16,53,18.40
2019,03,18,16,54,18.30
2019,03,18,16,55,18.30
2019,03,18,16,56,18.30
2019,03,18,16,57,18.30
2019,03,18,16,58,18.30
2019,03,18,16,59,18.30
2019,03,18,17,00,18.30
2019,03,18,17,01,18.30
2019,03,18,17,02,18.40
2019,03,18,17,03,18.40
2019,03,18,17,04,18.30
2019,03,18,17,05,18.30
2019,03,18,17,06,18.30
2019,03,18,17,07,18.20
2019,03,18,17,08,18.20
2019,03,18,17,09,18.20
2019,03,18,17,10,18.10
2019,03,18,17,11,18.10
2019,03,18,17,12,18.00
2019,03,18,17,13,17.90
2019,03,18,17,14,17.80
2019,03,18,17,15,17.80
2019,03,18,17,16,17.80
2019,03,18,17,17,17.80
2019,03,18,17,18,17.80
2019,03,18,17,19,17.80
2019,03,18,17,20,17.80
2019,03,18,17,21,17.80
2019,03,18,17,22,17.70
2019,03,18,17,23,17.70
2019,03,18,17,24,17.70
2019,03,18,17,25,17.60
2019,03,18,17,26,17.60
2019,03,18,17,27,17.60
2019,03,18,17,28,17.60
2019,03,18,17,29,17.50
2019,03,18,17,30,17.50
2019,03,18,17,31,17.50
2019,03,18,17,32,17.50
2019,03,18,17,33,17.40
2019,03,18,17,34,17.40
2019,03,18,17,35,17.40
2019,03,18,17,36,17.40
2019,03,18,17,37,17.30
2019,03,18,17,38,17.30
2019,03,18,17,39,17.20
2019,03,18,17,40,17.20
2019,03,18,17,41,17.10
2019,03,18,17,42,17.10